Location: Janeiro
(34.9957°N, 76.7652°W)
Time: 17:52:34
(UTC+00:00)

IRIDIUM 103 - Pass Details

Date: 14 December 2019
Orbit: 776 x 779 km, 86.4° (Epoch: 27 January)

Event Time Altitude Azimuth Distance (km) Brightness Sun altitude
Rises 23:28:11 0° 173° (S) 3,245 7.7 -18.2°
Reaches altitude 10° 23:30:32 10° 170° (S) 2,322 6.9 -18.7°
Maximum altitude 23:35:41 66° 89° (E) 850 4.2 -19.7°
Drops below altitude 10° 23:40:52 10° 8° (N) 2,337 6.6 -20.7°
Enters shadow 23:41:03 - 8° (N) 2,408 6.7 -20.8°
